• In Hungary
  • List of Countries
  • For 7 days
  • Water Temperature
  • Satellite Maps
  • Weather Map
  • News
  • Weather Widgets
  • user-avatar
    Login

    Hourly Weather Wlynkowko

    Today, 22 October, Monday

    Time Temperature Precipitation Wind Pressure Humidity
    00:00 +7°C° 0 mm 6 mps 766 mmHg 84%
    01:00 +7°C° 0 mm 6 mps 765 mmHg 84%
    02:00 +7°C° 0 mm 6 mps 765 mmHg 84%
    03:00 +7°C° 0 mm 6 mps 764 mmHg 84%
    04:00 +6°C° 0 mm 7 mps 764 mmHg 85%
    05:00 +6°C° 0.1 mm 7 mps 764 mmHg 85%
    06:00 +6°C° 0.1 mm 7 mps 764 mmHg 85%
    07:00 +8°C° 0.1 mm 7 mps 764 mmHg 85%
    08:00 +8°C° 0.5 mm 7 mps 764 mmHg 86%
    09:00 +9°C° 0.5 mm 7 mps 764 mmHg 86%
    10:00 +9°C° 0.5 mm 7 mps 764 mmHg 87%
    11:00 +9°C° 0.6 mm 7 mps 764 mmHg 85%
    12:00 +9°C° 0.6 mm 7 mps 764 mmHg 83%
    13:00 +10°C° 0.6 mm 7 mps 764 mmHg 80%
    14:00 +10°C° 0 mm 7 mps 764 mmHg 76%
    15:00 +9°C° 0 mm 7 mps 764 mmHg 71%
    16:00 +9°C° 0 mm 7 mps 764 mmHg 67%
    17:00 +9°C° 0 mm 7 mps 764 mmHg 68%
    18:00 +8°C° 0 mm 7 mps 764 mmHg 68%
    19:00 +8°C° 0 mm 7 mps 765 mmHg 69%
    20:00 +6°C° 0 mm 7 mps 765 mmHg 71%
    21:00 +6°C° 0 mm 7 mps 764 mmHg 73%
    22:00 +7°C° 0 mm 6 mps 764 mmHg 75%
    23:00 +7°C° 0.1 mm 6 mps 764 mmHg 75%

    Tomorrow, 23 October, Tuesday

    Time Temperature Precipitation Wind Pressure Humidity
    00:00 +6°C° 0.1 mm 7 mps 763 mmHg 76%
    01:00 +6°C° 0.1 mm 7 mps 763 mmHg 77%
    02:00 +6°C° 0.2 mm 7 mps 762 mmHg 77%
    03:00 +6°C° 0.2 mm 8 mps 761 mmHg 77%
    04:00 +6°C° 0.2 mm 8 mps 760 mmHg 77%
    05:00 +6°C° 0.6 mm 10 mps 759 mmHg 79%
    06:00 +4°C° 0.6 mm 11 mps 757 mmHg 80%
    07:00 +4°C° 0.6 mm 12 mps 756 mmHg 82%
    08:00 +4°C° 1.9 mm 13 mps 754 mmHg 82%
    09:00 +5°C° 1.9 mm 13 mps 752 mmHg 83%
    10:00 +5°C° 1.9 mm 13 mps 751 mmHg 84%
    11:00 +7°C° 3 mm 13 mps 749 mmHg 85%
    12:00 +8°C° 3 mm 13 mps 748 mmHg 86%
    13:00 +9°C° 3 mm 14 mps 746 mmHg 86%
    14:00 +9°C° 0.9 mm 14 mps 746 mmHg 83%
    15:00 +10°C° 0.9 mm 14 mps 745 mmHg 79%
    16:00 +10°C° 0.9 mm 14 mps 745 mmHg 76%
    17:00 +9°C° 0.3 mm 13 mps 745 mmHg 74%
    18:00 +9°C° 0.3 mm 13 mps 745 mmHg 72%
    19:00 +9°C° 0.3 mm 13 mps 745 mmHg 70%
    20:00 +9°C° 0.1 mm 13 mps 745 mmHg 69%
    21:00 +8°C° 0.1 mm 13 mps 744 mmHg 68%
    22:00 +8°C° 0.1 mm 13 mps 744 mmHg 66%
    23:00 +8°C° 0.2 mm 13 mps 744 mmHg 64%

    Day after tomorrow, 24 October, Wednesday

    Time Temperature Precipitation Wind Pressure Humidity
    00:00 +7°C° 0.2 mm 13 mps 744 mmHg 63%
    01:00 +7°C° 0.2 mm 13 mps 745 mmHg 61%
    02:00 +5°C° 0.1 mm 13 mps 745 mmHg 57%
    03:00 +4°C° 0.1 mm 13 mps 746 mmHg 54%
    04:00 +4°C° 0.1 mm 14 mps 747 mmHg 51%
    05:00 +4°C° 0 mm 13 mps 748 mmHg 52%
    06:00 +3°C° 0 mm 13 mps 748 mmHg 54%
    07:00 +3°C° 0 mm 12 mps 749 mmHg 55%
    08:00 +4°C° 0 mm 12 mps 750 mmHg 54%
    09:00 +4°C° 0 mm 12 mps 751 mmHg 52%
    10:00 +5°C° 0 mm 12 mps 751 mmHg 50%
    11:00 +5°C° 0 mm 12 mps 752 mmHg 50%
    12:00 +5°C° 0 mm 12 mps 752 mmHg 49%
    13:00 +7°C° 0 mm 12 mps 753 mmHg 48%
    14:00 +6°C° 0 mm 11 mps 754 mmHg 50%
    15:00 +6°C° 0 mm 11 mps 754 mmHg 51%
    16:00 +6°C° 0 mm 10 mps 755 mmHg 52%
    17:00 +6°C° 0 mm 10 mps 755 mmHg 54%
    18:00 +5°C° 0 mm 9 mps 756 mmHg 56%
    19:00 +5°C° 0 mm 9 mps 756 mmHg 58%
    20:00 +5°C° 0 mm 8 mps 757 mmHg 60%
    21:00 +5°C° 0 mm 7 mps 757 mmHg 62%
    22:00 +4°C° 0 mm 7 mps 757 mmHg 64%
    23:00 +4°C° 0 mm 6 mps 757 mmHg 65%

    25 October, Thursday

    Time Temperature Precipitation Wind Pressure Humidity
    00:00 +4°C° 0 mm 6 mps 758 mmHg 66%
    01:00 +4°C° 0 mm 6 mps 758 mmHg 67%
    02:00 +4°C° 0 mm 6 mps 757 mmHg 68%
    03:00 +4°C° 0 mm 6 mps 757 mmHg 69%
    04:00 +4°C° 0 mm 6 mps 757 mmHg 70%
    05:00 +4°C° 0 mm 6 mps 756 mmHg 74%
    06:00 +5°C° 0 mm 6 mps 756 mmHg 77%
    07:00 +5°C° 0 mm 6 mps 755 mmHg 81%
    08:00 +6°C° 0.4 mm 7 mps 755 mmHg 84%
    09:00 +7°C° 0.4 mm 8 mps 755 mmHg 86%
    10:00 +8°C° 0.4 mm 9 mps 754 mmHg 89%
    11:00 +8°C° 0.3 mm 10 mps 754 mmHg 87%
    12:00 +9°C° 0.3 mm 10 mps 753 mmHg 86%
    13:00 +9°C° 0.3 mm 10 mps 753 mmHg 84%
    14:00 +9°C° 0.2 mm 11 mps 753 mmHg 84%
    15:00 +9°C° 0.2 mm 11 mps 752 mmHg 83%
    16:00 +11°C° 0.2 mm 11 mps 752 mmHg 82%
    17:00 +11°C° 0.2 mm 11 mps 752 mmHg 82%
    18:00 +9°C° 0.2 mm 10 mps 752 mmHg 81%
    19:00 +9°C° 0.2 mm 10 mps 752 mmHg 81%
    20:00 +10°C° 0.2 mm 9 mps 752 mmHg 81%
    21:00 +10°C° 0.2 mm 9 mps 752 mmHg 81%
    22:00 +10°C° 0.2 mm 8 mps 752 mmHg 80%
    23:00 +10°C° 0.2 mm 8 mps 752 mmHg 82%

    26 October, Friday

    Time Temperature Precipitation Wind Pressure Humidity
    00:00 +10°C° 0.2 mm 8 mps 752 mmHg 83%
    01:00 +10°C° 0.2 mm 8 mps 752 mmHg 85%
    02:00 +10°C° 0.2 mm 7 mps 752 mmHg 86%
    03:00 +10°C° 0.2 mm 7 mps 752 mmHg 87%
    04:00 +10°C° 0.2 mm 7 mps 752 mmHg 88%
    05:00 +9°C° 0.2 mm 6 mps 751 mmHg 89%
    06:00 +9°C° 0.2 mm 6 mps 751 mmHg 89%
    07:00 +9°C° 0.2 mm 6 mps 751 mmHg 90%
    08:00 +9°C° 0.2 mm 7 mps 751 mmHg 89%
    09:00 +8°C° 0.2 mm 7 mps 751 mmHg 88%
    10:00 +8°C° 0.2 mm 7 mps 750 mmHg 86%
    11:00 +9°C° 0 mm 7 mps 750 mmHg 83%
    12:00 +9°C° 0 mm 7 mps 750 mmHg 79%
    13:00 +9°C° 0 mm 7 mps 749 mmHg 76%
    14:00 +9°C° 0 mm 7 mps 749 mmHg 76%
    15:00 +9°C° 0 mm 7 mps 749 mmHg 76%
    16:00 +9°C° 0 mm 7 mps 748 mmHg 76%
    17:00 +9°C° 0 mm 7 mps 748 mmHg 78%
    18:00 +7°C° 0 mm 8 mps 748 mmHg 79%
    19:00 +7°C° 0 mm 8 mps 747 mmHg 81%
    20:00 +7°C° 0.1 mm 8 mps 747 mmHg 82%
    21:00 +7°C° 0.1 mm 8 mps 747 mmHg 82%
    22:00 +7°C° 0.1 mm 9 mps 747 mmHg 83%
    23:00 +7°C° 0.1 mm 9 mps 747 mmHg 81%

    27 October, Saturday

    Time Temperature Precipitation Wind Pressure Humidity
    00:00 +7°C° 0.1 mm 9 mps 747 mmHg 80%
    01:00 +6°C° 0.1 mm 8 mps 747 mmHg 79%
    02:00 +6°C° 0 mm 8 mps 747 mmHg 78%
    03:00 +5°C° 0 mm 8 mps 747 mmHg 78%
    04:00 +5°C° 0 mm 8 mps 747 mmHg 78%
    05:00 +4°C° 0 mm 8 mps 747 mmHg 79%
    06:00 +4°C° 0 mm 8 mps 747 mmHg 80%
    07:00 +2°C° 0 mm 8 mps 747 mmHg 82%
    08:00 +4°C° 0 mm 8 mps 747 mmHg 76%
    09:00 +5°C° 0 mm 8 mps 747 mmHg 71%
    10:00 +6°C° 0 mm 9 mps 747 mmHg 66%
    11:00 +7°C° 0 mm 8 mps 747 mmHg 63%
    12:00 +7°C° 0 mm 8 mps 746 mmHg 60%
    13:00 +9°C° 0 mm 8 mps 746 mmHg 58%
    14:00 +8°C° 0 mm 7 mps 746 mmHg 61%
    15:00 +8°C° 0 mm 7 mps 746 mmHg 63%
    16:00 +7°C° 0 mm 6 mps 746 mmHg 66%
    17:00 +7°C° 0.1 mm 6 mps 747 mmHg 69%
    18:00 +7°C° 0.1 mm 5 mps 747 mmHg 71%
    19:00 +6°C° 0.1 mm 5 mps 747 mmHg 73%
    20:00 +6°C° 0.1 mm 4 mps 747 mmHg 74%
    21:00 +6°C° 0.1 mm 4 mps 747 mmHg 76%
    22:00 +7°C° 0.1 mm 3 mps 747 mmHg 77%
    23:00 +7°C° 0 mm 3 mps 748 mmHg 78%
    Show more